星链-37190(STARLINK-37190)

导读

STARLINK-37190(NORAD编号68396)是美国SpaceX公司星链(Starlink)星座中的一颗低轨互联网通信卫星,属于星链卫星组网的组成部分,运行在近地轨道为全球提供宽带互联网服务。星链卫星普遍配备相控阵天线、光学激光星间链路,采用氩气离子推进系统,可实现轨道机动与脱轨操作。该卫星作为批量生产的星链卫星之一,承担着增强星座网络覆盖、提升通信容量的任务,助力星链实现全球互联的目标,目前相关公开信息较少,整体状态需结合SpaceX后续披露信息确认。

基本信息
目录编号:
68396
目录名称:
STARLINK-37190
国际标识:
2026-063S
轨道中心:
EARTH
卫星名称:
星链-37190
卫星全名:
星链-37190(STARLINK-37190)
卫星状态:
在轨 (已飞行171 天)
发射日期:
2026-03-26 UTC
国别 :
美国 (US)
星等 :
--
该卫星已列入 空间交会检测服务 Space Conjunction Data Service (SCDS) ,当前飞行风险评估等级: 无高风险
轨道信息
数据来源 国际轨道数据
星历时间: 2026-09-13T06:30:54+0800
12小时前
查看轨道信息
半长轴: 6843.677km
偏心率: 0.0001758
轨道倾角: 97.285°
近地点辐角 74.920°
升交点赤经 36.965°
平近点角 285.224°
近地点: 464.336km
远地点: 466.744km
周期: 93.906分钟
每日圈数: 15.334464
详细信息
固有亮度:
5
最大亮度:
2.5
卫星平台:
Starlink V1.0
覆盖范围:
全球
运营商:
太空探索技术公司
运营商所在国:
美国
制造商(研发单位):
太空探索技术公司
制造商所在国:
美国
使用方式:
暂无
卫星简介
Starlink 计划是 SpaceX 推出的全球卫星互联网项目,通过发射低轨道卫星,为全球尤其是偏远地区提供高速、低延迟的互联网服务。自 2019 年起,Starlink 已部署数千颗卫星,旨在缩小全球数字鸿沟,推动互联网普及。该项目还为军事、航空等行业提供通信支持,带来广泛经济效益。
2D轨道图
3D轨道图
轨道高度分析图
轨道倾角分析图
轨道综合分析图
查看轨道综合分析图
交会数据列表
事件ID 空间交会对象 最接近时刻(TCA) 交会距离 交会风险概率(CRP) 交会风险指数(CRI) 操作
CDM_260914-005604-840606-839621
2026-09-14T
00:56:45+0000
1.772 km
极远距离
3.852846E-6 低风险 0.47
CDM_260914-152305-480606-839621
2026-09-14T
15:23:14+0000
2.723 km
极远距离
1.502671E-6 低风险 0.39
CDM_260915-141004-828006-839621
2026-09-15T
14:10:23+0000
2.966 km
极远距离
1.205787E-6 低风险 0.37
与全量物体交会距离演化趋势
与全量物体交会风险概率演化趋势